User: anonymous
Location: Albany
(35.0000°S, 118.0000°E)
Time: 07:31:05
(UTC-04:00)
Language:

Atlas Centaur 2 - Orbit

View from above orbital plane
View from above orbital plane
View from above satellite
View from above satellite

Ground track
Ground track

The orbit data is extracted from the following two-line orbital elements,

1 00694U 63047A   14259.15666714  .00003212  00000-0  41726-3 0  5904
2 00694 030.3594 287.7379 0597241 322.3670 076.3065 13.99798082541642
Epoch (UTC): 16 September 2014 03:45:36
Eccentricity: 0.0597241
inclination: 30.3594°
perigee height: 460 km
apogee height: 1329 km
right ascension of ascending node: 287.7379°
argument of perigee: 322.3670°
revolutions per day: 13.99798082
mean anomaly at epoch: 76.3065°
orbit number at epoch: 54164

The dashed part of the orbit path shows where the satellite is in the earth's shadow,  

DLR